Location: Unspecified
(41.1850°N, 73.2650°W)
Time: 15:33:21
(UTC+00:00)

ARIANE 6 FM1 Upper Stage - Pass Details

Date: 22 February 2026
Orbit: 523 x 607 km, 62.0° (Epoch: 6 March)

Event Time Altitude Azimuth Distance (km) Brightness Sun altitude
Rises 00:04:47 0° 307° (NW) 2,656 7.0 -17.7°
Reaches altitude 10° 00:07:30 10° 287° (WNW) 1,767 6.4 -18.2°
Maximum altitude 00:10:10 18° 245° (WSW) 1,356 5.4 -18.7°
Drops below altitude 10° 00:12:52 10° 202° (SSW) 1,776 5.4 -19.2°
Sets 00:15:37 0° 182° (S) 2,675 6.1 -19.7°
